Regional Weather Roundup
Issued by NWS

Home | Current Version | Previous Version | Text Only | Print | Product List | Glossary Off
Versions: 1 2 3 4 5 6 7 8 9 10 11 12 13 14 15 16 17 18 19 20 21 22 23 24 25 26 27 28 29 30 31 32 33 34 35 36 37 38 39 40 41 42 43 44 45 46 47 48 49 50

000
ASUS44 KMEG 240210
RWRTN
TENNESSEE HOURLY STATE WEATHER ROUNDUP
NATIONAL WEATHER SERVICE MEMPHIS TN
800 PM CST TUE JAN 23 2018

TNZ002-004-019-021-049-052-054-088>092-240300-
WEST TENNESSEE

CITY           SKY/WX    TMP DP  RH WIND       PRES   REMARKS
MEMPHIS INTL   FAIR      39  30  70 S5        30.27R
NWS MEMPHIS      N/A     34 N/A N/A MISG        N/A
JACKSON        FAIR      36  31  82 CALM      30.26R
DYERSBURG      FAIR      32  29  88 CALM      30.26R
SOMERVILLE     PTCLDY    32  28  86 CALM      30.25R
COVINGTON      CLEAR     32  30  93 CALM      30.27R
UNION CITY     CLOUDY    32  28  86 CALM      30.25R
BOLIVAR        MOCLDY    32  28  86 CALM      30.26R
PARIS          CLOUDY    37  30  75 CALM      30.23R
HUNTINGDON     CLOUDY    39  32  75 CALM      30.24R
LEXINGTON      CLOUDY    39  30  70 CALM      30.25R
SELMER         CLOUDY    39  30  70 CALM      30.25R
SAVANNAH       CLOUDY    41  30  65 CALM      30.26R
$$

TNZ008-025-027-028-033-062-065-066-240300-
NORTH MIDDLE TENNESSEE

CITY           SKY/WX    TMP DP  RH WIND       PRES   REMARKS
NASHVILLE      CLOUDY    41  29  62 W8        30.21R
PORTLAND       CLOUDY    39  30  70 NW6G15    30.19R WCI  35
CLARKSVILLE    CLOUDY    39  27  62 NW10G20   30.22R WCI  32
SMYRNA         CLOUDY    41  29  62 W8        30.22S
COOKEVILLE     CLOUDY    39  30  70 VRB5      30.17R
GALLATIN       CLOUDY    41  30  65 VRB6      30.22S
CROSSVILLE     CLOUDY    36  28  73 W13       30.14R WCI  27
$$

TNZ061-075-076-078-094-096-097-240300-
SOUTH MIDDLE TENNESSEE

CITY           SKY/WX    TMP DP  RH WIND       PRES   REMARKS
FAYETTEVILLE   CLOUDY    39  28  65 NW9G16    30.20R WCI  33
TULLAHOMA      CLOUDY    37  28  70 NW8       30.19R WCI  31
WINCHESTER     CLOUDY    37  28  70 N7        30.20R WCI  32
MCMINNVILLE    CLOUDY    39  30  70 W5        30.19R
COLUMBIA       CLOUDY    39  30  70 W6        30.21R WCI  35
SHELBYVILLE    CLOUDY    39  30  70 W6        30.21R WCI  35
$$

TNZ017-018-042-046-047-240300-
NORTHEAST TENNESSEE

CITY           SKY/WX    TMP DP  RH WIND       PRES   REMARKS
TRI CITIES     CLOUDY    45  30  55 W12       30.04R
ELIZABETHTON   CLOUDY    45  28  53 W8        30.03R
$$

TNZ012-013-036-069-073-074-240300-
CENTRAL EAST TENNESSEE

CITY           SKY/WX    TMP DP  RH WIND       PRES   REMARKS
KNOXVILLE      CLOUDY    43  30  60 W12       30.12R
OAK RIDGE      CLOUDY    43  29  57 W7        30.15R
DOWNTOWN KNOXV CLOUDY    45  30  57 W13       30.13R
GATLINBURG     CLOUDY    45  28  53 W9G17     30.11R
MORRISTOWN     CLOUDY    43  30  61 NW13      30.08R
JACKSBORO      CLOUDY    41  30  65 CALM      30.16R
$$

TNZ083-085-099-240300-
SOUTHEAST TENNESSEE

CITY           SKY/WX    TMP DP  RH WIND       PRES   REMARKS
CHATTANOOGA    MOCLDY    43  27  53 NW8       30.18R
DAYTON         CLOUDY    43  32  65 W9        30.17R
$$

SKY/WX REPORTED AS FAIR MEANS FEW OR NO CLOUDS BELOW
12 THOUSAND FEET.





USA.gov is the U.S. government's official web portal to all federal, state and local government web resources and services.